Location: Schommer Observatory
(40.5200°N, 74.4500°W)
Time: 01:47:57
(UTC-05:00)

Envisat - Pass Details

Date: 15 October 2017
Orbit: 764 x 766 km, 98.2° (Epoch: 17 December)

Event Time Altitude Azimuth Distance (km) Brightness Sun altitude
Exits shadow 19:43:03 23° 58° (ENE) 1,607 4.2 -17.1°
Drops below altitude 10° 19:46:32 10° 15° (NNE) 2,313 5.4 -17.7°
Sets 19:49:16 0° 1° (N) 3,244 6.3 -18.2°
